Location: Allonne
(49.4086°N, 2.1143°E)
Time: 09:03:48
(UTC+00:00)

S3M - Pass Details

Date: 03 February 2023
Orbit: 948 x 1005 km, 83.0° (Epoch: 23 March)

Event Time Altitude Azimuth Distance (km) Brightness Sun altitude
Rises 18:28:45 0° 164° (SSE) 3,719 6.9 -16.2°
Reaches altitude 10° 18:31:23 10° 158° (SSE) 2,774 6.2 -16.6°
Maximum altitude 18:37:21 44° 89° (E) 1,371 4.3 -17.6°
Drops below altitude 10° 18:43:19 10° 20° (NNE) 2,781 6.1 -18.5°
Sets 18:45:57 0° 14° (NNE) 3,728 6.9 -18.9°
